Port Hope, MI

3:11 AM EDT on September 29, 2016 (GMT -0400)
Port Hope

Weather History for KP58 - March, 2014

Change the Weather History Date:

Friday, March 28, 2014

  Actual Average Record
Temperature  
Mean Temperature 38 °F -  
Max Temperature 44 °F 40 °F 71 °F (1998)
Min Temperature 33 °F 30 °F 14 °F (2011)
Degree Days  
Heating Degree Days 28    
Moisture  
Dew Point 33 °F    
Average Humidity 86    
Maximum Humidity 96    
Minimum Humidity 76    
Precipitation  
Precipitation 0.47 in - - ()
Sea Level Pressure  
Sea Level Pressure 29.80 in    
Wind  
Wind Speed 6 mph (WNW)    
Max Wind Speed 14 mph    
Max Gust Speed 22 mph    
Averages and records for this station are not official NWS values.
T = Trace of Precipitation, MM = Missing Value Source: NWS Daily Summary

Daily Weather History Graph

Daily Weather History Graph

Search for Another Location

Airport or City:

Trip Planner

Search our weather history database for the weather conditions in past years. The results will help you decide how hot, cold, wet, or windy it might be!

Date:

Astronomy

Mar. 28, 2014 Rise Set
Actual Time 7:19 AM EDT 7:53 PM EDT
Civil Twilight 6:50 AM EDT 8:22 PM EDT
Nautical Twilight 6:16 AM EDT 8:56 PM EDT
Astronomical Twilight 5:41 AM EDT 9:32 PM EDT
Moon 5:54 AM EDT (3/28) 5:45 PM EDT (3/28)
Length of Visible Light 13h 31m
Length of Day
12h 33m
Waning Crescent, 6% of the Moon is Illuminated
Mar 28
Waning Crescent
Mar 30
New
Apr 7
First Quarter
Apr 15
Full
Apr 22
Last Quarter

Hourly Weather History & Observations

Time (EDT) Temp. Windchill Dew Point Humidity Pressure Visibility Wind Dir Wind Speed Gust Speed Precip Events Conditions
12:51 AM 37.0 °F 30.4 °F 33.1 °F 86% 29.62 in - SSE 9.2 mph - 0.04 in   Unknown
1:51 AM 37.0 °F 31.6 °F 34.0 °F 89% 29.59 in - South 6.9 mph - 0.09 in   Unknown
2:51 AM 39.0 °F 34.0 °F 35.1 °F 86% 29.56 in - Variable 6.9 mph - 0.03 in   Unknown
3:51 AM 41.0 °F 36.4 °F 35.1 °F 79% 29.52 in - Variable 6.9 mph - N/A   Unknown
4:51 AM 41.0 °F 37.1 °F 37.9 °F 89% 29.51 in - Variable 5.8 mph - 0.05 in   Unknown
5:51 AM 41.0 °F 39.0 °F 39.0 °F 93% 29.50 in - SSE 3.5 mph - 0.04 in   Unknown
6:51 AM 37.9 °F - 36.0 °F 93% 29.50 in - Calm Calm - N/A   Unknown
7:51 AM 35.1 °F - 33.1 °F 92% 29.51 in - Calm Calm - N/A   Unknown
8:51 AM 35.1 °F - 33.1 °F 92% 29.53 in - Calm Calm - 0.02 in   Unknown
9:51 AM 42.1 °F 40.2 °F 39.9 °F 92% 29.53 in - SW 3.5 mph - 0.04 in   Unknown
10:51 AM 37.9 °F 32.1 °F 36.0 °F 93% 29.60 in - NW 8.1 mph - 0.09 in   Unknown
11:51 AM 34.0 °F 27.2 °F 32.0 °F 92% 29.68 in - NW 8.1 mph - 0.03 in   Unknown
12:51 PM 33.1 °F 23.9 °F 32.0 °F 96% 29.76 in - NW 12.7 mph 20.7 mph 0.02 in   Unknown
1:51 PM 37.0 °F 28.5 °F 33.1 °F 86% 29.81 in - WNW 13.8 mph 21.9 mph 0.02 in   Unknown
2:51 PM 37.0 °F 29.3 °F 32.0 °F 82% 29.87 in - WNW 11.5 mph 18.4 mph N/A   Unknown
3:51 PM 39.0 °F 34.8 °F 33.1 °F 79% 29.91 in - NW 5.8 mph - N/A   Unknown
4:51 PM 39.0 °F 35.7 °F 32.0 °F 76% 29.98 in - NW 4.6 mph - N/A   Unknown
5:51 PM 37.0 °F - 30.9 °F 79% 30.04 in - Calm Calm - N/A   Unknown
6:51 PM 36.0 °F - 28.9 °F 76% 30.14 in - Calm Calm - N/A   Unknown
7:51 PM 35.1 °F - 30.0 °F 82% 30.16 in - Calm Calm - N/A   Unknown
8:51 PM 34.0 °F - 28.9 °F 82% 30.18 in - Calm Calm - N/A   Unknown
9:51 PM 34.0 °F - 28.9 °F 82% 30.20 in - Calm Calm - N/A   Unknown
10:51 PM 34.0 °F - 28.9 °F 82% 30.23 in - Calm Calm - N/A   Unknown
11:51 PM 33.1 °F 26.1 °F 28.9 °F 85% 30.22 in - North 8.1 mph - N/A   Unknown